This demonstration page uses our WeatherBlox Daily Observations layout. Learn more.

Left ArrowRight Arrow

39.29038, -76.61219

Hourly Observations for November 9, 2020

Temp ( °F °C ) Dew Point ( °F °C ) Humidity (%) Winds ( mph kmh ) Pressure ( in mb ) Visibility ( mi km ) Precip ( " mm )
12:54 am 00:54 Mostly Clear with Fog 54 12.2 52 11.1 93 93 Calm 30.35 1028 9 14 0.00 0.00
1:54 am 01:54 Mostly Clear with Fog 52 11.1 51 10.6 97 97 Calm 30.35 1028 9 14 0.00 0.00
2:54 am 02:54 Clear with Fog 52 11.1 51 10.6 97 97 Calm 30.35 1028 8 13 0.00 0.00
3:26 am 03:26 Mostly Clear with Fog 51 10.6 49 9.4 92 92 Calm 30.35 1028 8 13 0.00 0.00
3:54 am 03:54 Mostly Clear with Patchy Fog 50 10 48 8.9 93 93 Calm 30.35 1028 6 10 0.00 0.00
4:54 am 04:54 Partly Cloudy with Patchy Fog 50 10 48 8.9 93 93 Calm 30.35 1028 5 8 0.00 0.00
5:54 am 05:54 Mostly Cloudy with Mist and Fog 49 9.4 46 7.8 90 90 Calm 30.36 1028 2 3 0.00 0.00
6:09 am 06:09 Partly Cloudy with Mist and Fog 49 9.4 47 8.3 93 93 Calm 30.36 1028 3 4 0.00 0.00
6:20 am 06:20 Partly Cloudy with Mist and Fog 49 9.4 47 8.3 93 93 Calm 30.36 1028 2 2 0.00 0.00
6:28 am 06:28 Partly Cloudy with Mist and Fog 50 10 48 8.9 93 93 Calm 30.36 1028 1 1 0.00 0.00
6:37 am 06:37 Mostly Cloudy with Fog 49 9.4 48 8.9 97 97 Calm 30.36 1028 0 0 0.00 0.00
6:54 am 06:54 Mostly Cloudy with Fog 49 9.4 47 8.3 93 93 Calm 30.36 1028 0 0 0.00 0.00
7:19 am 07:19 Mostly Cloudy with Fog 50 10 48 8.9 93 93 Calm 30.37 1029 0 0 0.00 0.00
7:27 am 07:27 Mostly Cloudy with Fog 50 10 49 9.4 96 96 Calm 30.37 1029 1 2 0.00 0.00
7:54 am 07:54 Mostly Cloudy with Fog 52 11.1 50 10 93 93 Calm 30.38 1029 1 2 0.00 0.00
8:45 am 08:45 Mostly Cloudy with Fog 55 12.8 54 12.2 96 96 Calm 30.38 1029 0 0 0.00 0.00
8:54 am 08:54 Mostly Cloudy with Fog 55 12.8 54 12.2 96 96 Calm 30.38 1029 0 0 0.00 0.00
9:36 am 09:36 Mostly Cloudy with Fog 57 13.9 56 13.3 96 96 Calm 30.38 1029 1 1 0.00 0.00
9:46 am 09:46 Cloudy with Mist and Fog 57 13.9 56 13.3 96 96 Calm 30.38 1029 2 3 0.00 0.00
9:54 am 09:54 Mostly Cloudy with Mist and Fog 58 14.4 56 13.3 93 93 Calm 30.37 1029 3 4 0.00 0.00
10:02 am 10:02 Partly Cloudy with Mist and Fog 59 15 57 13.9 93 93 Calm 30.37 1028 3 5 0.00 0.00
10:07 am 10:07 Partly Cloudy with Mist and Fog 59 15 57 13.9 93 93 Calm 30.37 1028 3 4 0.00 0.00
10:27 am 10:27 Mostly Sunny 63 17.2 58 14.4 84 84 Calm 30.37 1028 7 11 0.00 0.00
10:54 am 10:54 Sunny 66 18.9 58 14.4 75 75 Calm 30.36 1028 8 13 0.00 0.00
11:54 am 11:54 Mostly Sunny 74 23.3 59 15 60 60 VRB 3 6 30.33 1027 10 16 0.00 0.00
12:54 pm 12:54 Mostly Sunny 75 23.9 59 15 58 58 Calm 30.30 1026 10 16 0.00 0.00
1:54 pm 13:54 Mostly Sunny 77 25 59 15 54 54 VRB 6 9 30.28 1025 10 16 0.00 0.00
2:54 pm 14:54 Mostly Sunny 76 24.4 58 14.4 54 54 E 7 11 30.27 1025 10 16 0.00 0.00
3:54 pm 15:54 Mostly Sunny 73 22.8 56 13.3 55 55 SE 8 13 30.27 1025 10 16 0.00 0.00
4:54 pm 16:54 Mostly Sunny 69 20.6 55 12.8 61 61 SE 6 9 30.27 1025 10 16 0.00 0.00
5:54 pm 17:54 Clear 66 18.9 54 12.2 65 65 Calm 30.27 1025 10 16 0.00 0.00
6:54 pm 18:54 Clear 64 17.8 55 12.8 73 73 Calm 30.27 1025 10 16 0.00 0.00
7:54 pm 19:54 Mostly Clear 63 17.2 55 12.8 76 76 S 3 6 30.27 1025 10 16 0.00 0.00
8:54 pm 20:54 Clear 59 15 54 12.2 83 83 Calm 30.27 1025 10 16 0.00 0.00
9:54 pm 21:54 Clear 59 15 54 12.2 83 83 Calm 30.27 1025 10 16 0.00 0.00
10:54 pm 22:54 Clear 57 13.9 53 11.7 87 87 Calm 30.26 1025 10 16 0.00 0.00
11:54 pm 23:54 Clear 54 12.2 52 11.1 93 93 Calm 30.25 1025 10 16 0.00 0.00

Powered by AerisWeather